Location: Newark
(25.6108°S, 54.5803°W)
Time: 16:30:35
(UTC+00:00)

Courier 1B Rocket - Pass Details

Date: 30 October 2020
Orbit: 920 x 1202 km, 28.2° (Epoch: 22 November)

Event Time Altitude Azimuth Distance (km) Brightness Sun altitude
Rises 09:22:00 0° 284° (WNW) 3,993 7.5 6.0°
Reaches altitude 10° 09:24:52 10° 284° (WNW) 2,998 6.9 6.6°
Maximum altitude 09:32:16 90° 218° (SW) 1,072 5.5 8.3°
Drops below altitude 10° 09:39:08 10° 103° (ESE) 2,791 11.7 9.8°
Sets 09:41:43 0° 102° (ESE) 3,704 10.4 10.4°
